[[{"header":{"parameterUnit":"m.s-1","parameterCategory":1,"la1":30.2991,"la2":30.254,"lo1":-89.0895,"lo2":-89.0444,"dy":0.0017,"dx":0.0017,"nx":28,"ny":28,"refTime":"2023-10-27T09:00:00:Z","depth":0,"parameterNumber":2,"parameterNumberName":"U-component_of_WINDS"},"data":[0,0,0,0,0,0,0,0,0,0,0,0,0,0,0,0,0,0,0,0,0,0,0,0,0,0,0,0,0,0,0,0,0,0,0,0,0,0,0,0,0,0,0,0,0,0,0,0,0,0,0,0,0,0,0,0,0,0,-2.9263,-2.9263,0,-2.9252,-2.9252,-2.9252,-2.9125,-2.9122,-2.9118,-2.9115,-2.9106,-2.9109,-2.9111,0,0,0,0,0,0,0,0,0,0,0,0,0,-2.9176,-2.9178,-2.9263,-2.9263,-2.9262,-2.9252,-2.9252,-2.9252,-2.9125,-2.9121,-2.9118,-2.9114,-2.9105,-2.9108,-2.9111,0,0,0,0,0,0,0,0,0,0,0,0,0,-2.9194,-2.9179,-2.9263,-2.9198,-2.9192,-2.9252,-2.9252,-2.9251,-2.9126,-2.9121,-2.9116,-2.9112,-2.9104,-2.9108,-2.9112,-2.9233,0,0,-2.9124,-2.9126,0,0,0,0,0,0,0,0,-2.9193,-2.9198,-2.9208,-2.9203,-2.9196,-2.9185,-2.9217,-2.9245,-2.9127,-2.9151,-2.9115,-2.911,-2.9136,-2.9137,-2.9146,-2.9233,-2.9232,-2.9125,-2.9127,-2.9129,-2.913,0,0,0,0,0,0,0,-2.9192,-2.9197,-2.9258,-2.9208,-2.9201,-2.917,-2.9168,-2.9222,-2.9171,-2.9149,-2.914,-2.914,-2.9132,-2.9142,-2.9145,-2.9232,-2.9125,-2.9128,-2.9131,-2.9132,-2.9419,-2.9424,0,0,0,0,0,0,-2.92,-2.9197,-2.9259,-2.9258,-2.9183,-2.9176,-2.9173,-2.9193,-2.917,-2.9162,-2.9144,-2.9134,-2.9137,-2.914,-2.9144,-2.9284,-2.9129,-2.9133,-2.9135,-2.9414,-2.942,-2.9426,0,0,0,0,0,0,-2.9198,-2.9206,-2.9259,-2.9225,-2.9229,-2.9182,-2.9206,-2.9196,-2.9205,-2.9166,-2.9157,-2.9164,-2.9134,-2.9138,-2.9212,-2.9282,-2.9135,-2.9138,-2.9408,-2.9416,-2.9423,-2.9567,0,0,0,0,0,0,-2.9196,-2.9207,-2.9252,-2.9227,-2.9232,-2.9327,-2.9211,-2.9199,-2.9213,-2.92,-2.9182,-2.9175,-2.913,-2.9207,-2.9216,-2.9285,-2.9142,-2.9401,-2.9411,-2.942,-2.9556,-2.9579,-2.9598,0,0,0,0,0,-2.9194,-2.9293,-2.9255,-2.9263,-2.9287,-2.9332,-2.9334,-2.9281,-2.9219,-2.9264,-2.9239,-2.9175,-2.9273,-2.9215,-2.9225,-2.9296,-2.9396,-2.9408,-2.942,-2.9546,-2.9574,-2.9598,0,0,0,0,0,0,-2.9327,-2.9289,-2.9246,-2.934,-2.934,-2.931,-2.9365,-2.9312,-2.933,-2.9317,-2.9251,-2.9248,-2.9332,-2.9322,-2.9258,-2.9413,-2.9324,-2.9338,-2.9417,-2.9443,-2.9464,-2.9465,-2.9145,0,0,0,0,0,-2.9368,-2.9407,-2.9371,-2.9457,-2.946,-2.9413,-2.943,-2.9389,-2.9387,-2.9387,-2.9367,-2.9368,-2.9398,-2.942,-2.9446,-2.9554,-2.9548,-2.9608,-2.9629,-2.9647,-2.966,-2.9717,-2.9743,-2.9464,-2.9464,-2.9463,0,0,-2.9452,-2.9435,-2.9464,-2.9484,-2.9479,-2.9522,-2.9414,-2.9463,-2.9494,-2.9394,-2.9462,-2.9449,-2.9445,-2.9537,-2.9576,-2.953,-2.9736,-2.9662,-2.9676,-2.9679,-2.9731,-2.9758,-2.9781,-2.9472,-2.947,-2.9469,0,0,-2.9626,-2.9618,-2.9689,-2.9687,-2.9681,-2.9649,-2.9667,-2.9645,-2.9632,-2.97,-2.9626,-2.9662,-2.9717,-2.9717,-2.9725,-2.9901,-2.9843,-2.9912,-3.0023,-3.0079,-3.0101,-3.012,-3.0184,-3.0207,-2.9925,-2.9925,-2.9925,0,-2.9731,-2.9791,-2.9732,-2.9787,-2.9798,-2.9709,-2.9782,-2.9782,-2.9786,-2.9796,-2.9745,-2.9812,-2.9803,-2.9894,-2.9937,-2.9946,-2.9965,-2.9913,-3.0103,-3.0121,-3.0138,-3.0198,-3.0222,-2.9933,-2.9933,-2.9932,-2.9931,0,-2.9921,-2.9964,-3.0023,-3.0028,-3.0046,-3.0109,-3.0061,-3.0086,-3.0044,-3.0018,-3.0089,-3.0076,-3.0098,-3.0117,-3.0076,-3.0202,-3.0174,-3.0114,-3.0023,-3.0174,-3.0229,-3.0252,-2.9945,-2.9942,-2.994,-2.9938,0,0,-3.0178,-3.0151,-3.0174,-3.0175,-3.0163,-3.0196,-3.0256,-3.0277,-3.03,-3.0306,-3.0355,-3.0404,-3.0348,-3.0357,-3.0316,-3.0366,-3.0507,-3.0299,-3.0298,-3.0338,-3.0646,-3.0691,-3.0718,-3.0469,-3.0473,-3.0476,-3.0646,0,-3.0346,-3.0446,-3.0395,-3.0502,-3.0541,-3.0459,-3.0511,-3.051,-3.0488,-3.0519,-3.0494,-3.053,-3.0454,-3.0459,-3.0504,-3.048,-3.0568,-3.0467,-3.0514,-3.0516,-3.0517,-3.0747,-3.0795,-3.0956,-3.0667,-3.0671,-3.0673,0,-3.0555,-3.057,-3.0681,-3.0662,-3.0677,-3.0724,-3.0741,-3.0771,-3.0769,-3.0749,-3.076,-3.0707,-3.0765,-3.0676,-3.0755,-3.0688,-3.0705,-3.0696,-3.0701,-3.0703,-3.0604,-3.0755,-3.1006,-3.103,-3.0707,-3.0704,-3.0701,0,-3.0732,-3.078,-3.0852,-3.0856,-3.0836,-3.0872,-3.0865,-3.0858,-3.0874,-3.0889,-3.0899,-3.0921,-3.0933,-3.0951,-3.0906,-3.0845,-3.0992,-3.0899,-3.0978,-3.098,-3.1012,-3.1011,-3.1269,-3.1024,-3.1023,-3.1023,-3.1022,0,-3.0925,-3.0996,-3.0931,-3.0976,-3.1053,-3.0995,-3.1073,-3.1058,-3.1052,-3.1093,-3.1023,-3.1063,-3.1001,-3.1035,-3.1001,-3.1072,-3.1078,-3.1065,-3.1055,-3.1071,-3.1073,-3.108,-3.1068,-3.1029,-3.1028,-3.1027,-3.1026,0,-3.1135,-3.1094,-3.1168,-3.1143,-3.1139,-3.1197,-3.1176,-3.1217,-3.1191,-3.1243,-3.1252,-3.1211,-3.1248,-3.1205,-3.1238,-3.1215,-3.1312,-3.1285,-3.1313,-3.1305,-3.1387,-3.138,-3.1659,-3.1693,-3.1426,-3.1429,-3.1431,0,-3.126,-3.1313,-3.1294,-3.1316,-3.1314,-3.135,-3.1367,-3.1312,-3.1333,-3.1335,-3.1376,-3.1406,-3.1428,-3.149,-3.1464,-3.1489,-3.1462,-3.1559,-3.1466,-3.1481,-3.1464,-3.1461,-3.1466,-3.1577,-3.1581,-3.1583,-3.1585,0,-3.1487,-3.1465,-3.1491,-3.1512,-3.1533,-3.1547,-3.1555,-3.1577,-3.152,-3.1547,-3.1584,-3.1601,-3.1634,-3.1666,-3.1684,-3.1678,-3.1623,-3.1615,-3.1635,-3.1651,-3.1665,-3.1659,-3.1364,-3.1608,-3.1606,-3.1604,-3.1603,-3.1602,-3.1658,-3.1701,-3.1695,-3.1727,-3.1728,-3.1738,-3.1775,-3.1753,-3.1783,-3.1806,-3.1772,-3.1818,-3.1815,-3.1834,-3.1834,-3.187,-3.1829,-3.1857,-3.1864,-3.1872,-3.1885,-3.166,-3.1873,-3.1872,-3.1872,-3.1871,-3.187,0,-3.1881,-3.1873,-3.1904,-3.1917,-3.1943,-3.1889,-3.1896,-3.1921,-3.1962,-3.1964,-3.1987,-3.203,-3.2061,-3.2037,-3.2063,-3.2096,-3.2072,-3.2105,-3.2102,-3.2101,-3.192,-3.19,-3.2124,-3.2124,-3.2124,-3.2124,-3.2124,-3.2124,-3.2,-3.207,-3.2048,-3.2118,-3.211,-3.2154,-3.2163,-3.2172,-3.2173,-3.2224,-3.2249,-3.2234,-3.2226,-3.2251,-3.2277,-3.2269,-3.2282,-3.2324,-3.2308,-3.2139,-3.2114,-3.209,-3.2071,-3.2328,-3.2328,-3.2486,-3.2488,-3.2489]},{"header":{"parameterUnit":"m.s-1","parameterCategory":1,"la1":30.2991,"la2":30.254,"lo1":-89.0895,"lo2":-89.0444,"dy":0.0017,"dx":0.0017,"nx":28,"ny":28,"refTime":"2023-10-27T09:00:00:Z","depth":0,"parameterNumber":3,"parameterNumberName":"V-component_of_WINDS"},"data":[0,0,0,0,0,0,0,0,0,0,0,0,0,0,0,0,0,0,0,0,0,0,0,0,0,0,0,0,0,0,0,0,0,0,0,0,0,0,0,0,0,0,0,0,0,0,0,0,0,0,0,0,0,0,0,0,0,0,-0.3208,-0.3208,0,-0.3198,-0.3197,-0.3197,-0.3237,-0.3238,-0.3239,-0.324,-0.3226,-0.3225,-0.3224,0,0,0,0,0,0,0,0,0,0,0,0,0,-0.3256,-0.3255,-0.3208,-0.3208,-0.3207,-0.3198,-0.3197,-0.3197,-0.3237,-0.3238,-0.324,-0.3241,-0.3227,-0.3225,-0.3223,0,0,0,0,0,0,0,0,0,0,0,0,0,-0.3239,-0.3255,-0.3208,-0.3226,-0.3228,-0.3198,-0.3197,-0.3197,-0.3236,-0.3238,-0.324,-0.3242,-0.3228,-0.3225,-0.3223,-0.3174,0,0,-0.3216,-0.3216,0,0,0,0,0,0,0,0,-0.324,-0.3237,-0.3223,-0.3225,-0.3226,-0.322,-0.3209,-0.3189,-0.3236,-0.3233,-0.324,-0.3243,-0.3223,-0.3221,-0.3215,-0.3173,-0.3173,-0.3216,-0.3215,-0.3214,-0.3213,0,0,0,0,0,0,0,-0.3241,-0.3238,-0.3204,-0.3223,-0.3225,-0.3233,-0.3233,-0.3206,-0.3218,-0.3233,-0.3236,-0.3235,-0.3224,-0.3217,-0.3215,-0.3173,-0.3216,-0.3214,-0.3213,-0.3212,-0.3087,-0.3085,0,0,0,0,0,0,-0.3241,-0.3239,-0.3204,-0.3203,-0.3238,-0.3231,-0.323,-0.322,-0.3218,-0.322,-0.3233,-0.3237,-0.322,-0.3218,-0.3215,-0.3155,-0.3214,-0.3212,-0.3211,-0.3089,-0.3086,-0.3084,0,0,0,0,0,0,-0.3241,-0.3237,-0.3204,-0.3222,-0.3218,-0.3228,-0.3217,-0.3219,-0.3213,-0.3218,-0.322,-0.3224,-0.3221,-0.3218,-0.3183,-0.3155,-0.3211,-0.3209,-0.3091,-0.3088,-0.3085,-0.3036,0,0,0,0,0,0,-0.3243,-0.3237,-0.322,-0.3221,-0.3217,-0.3174,-0.3215,-0.3218,-0.3209,-0.3214,-0.3211,-0.3212,-0.3223,-0.3187,-0.3181,-0.3153,-0.3207,-0.3094,-0.309,-0.3086,-0.304,-0.3032,-0.3025,0,0,0,0,0,-0.3244,-0.3206,-0.3219,-0.3214,-0.3196,-0.3173,-0.317,-0.3185,-0.3207,-0.3188,-0.3192,-0.3212,-0.3159,-0.3183,-0.3177,-0.3148,-0.3096,-0.3091,-0.3086,-0.3044,-0.3033,-0.3025,0,0,0,0,0,0,-0.3201,-0.3207,-0.3221,-0.3183,-0.3177,-0.318,-0.3157,-0.3174,-0.3161,-0.3165,-0.3182,-0.3181,-0.3143,-0.3142,-0.3168,-0.3099,-0.3131,-0.3125,-0.31,-0.3091,-0.3083,-0.3083,-0.3205,0,0,0,0,0,-0.3187,-0.3169,-0.3175,-0.314,-0.3137,-0.3147,-0.3138,-0.3149,-0.3144,-0.3141,-0.3142,-0.3134,-0.3116,-0.3104,-0.3087,-0.3041,-0.3039,-0.3017,-0.301,-0.3003,-0.2997,-0.297,-0.2959,-0.3069,-0.3069,-0.3069,0,0,-0.3158,-0.3159,-0.3146,-0.3132,-0.3129,-0.3108,-0.3145,-0.3122,-0.3106,-0.3137,-0.3104,-0.3105,-0.3097,-0.3056,-0.3038,-0.3054,-0.2967,-0.2997,-0.2992,-0.299,-0.2964,-0.2953,-0.2944,-0.3066,-0.3067,-0.3067,0,0,-0.3093,-0.3094,-0.3064,-0.306,-0.3055,-0.3062,-0.3054,-0.3054,-0.3056,-0.3023,-0.3045,-0.3026,-0.2995,-0.2988,-0.298,-0.2911,-0.2928,-0.2905,-0.2863,-0.2836,-0.2827,-0.282,-0.2793,-0.2783,-0.29,-0.29,-0.2899,0,-0.3057,-0.3028,-0.3046,-0.3021,-0.3012,-0.304,-0.3009,-0.3004,-0.2993,-0.2986,-0.3005,-0.2964,-0.2962,-0.2917,-0.29,-0.2894,-0.2884,-0.2905,-0.2828,-0.282,-0.2813,-0.2787,-0.2777,-0.2897,-0.2897,-0.2897,-0.2898,0,-0.2983,-0.2962,-0.2938,-0.2928,-0.2917,-0.2889,-0.29,-0.2886,-0.2898,-0.2902,-0.2867,-0.2865,-0.2847,-0.2838,-0.2849,-0.2794,-0.2804,-0.2825,-0.2858,-0.2799,-0.2775,-0.2766,-0.2892,-0.2894,-0.2894,-0.2895,0,0,-0.2891,-0.289,-0.288,-0.2875,-0.2871,-0.2854,-0.2826,-0.281,-0.2796,-0.2788,-0.2763,-0.2735,-0.2753,-0.2745,-0.2755,-0.2732,-0.2674,-0.2755,-0.2755,-0.2738,-0.261,-0.2592,-0.2581,-0.2685,-0.2684,-0.2682,-0.2609,0,-0.2826,-0.2779,-0.2793,-0.2745,-0.2725,-0.275,-0.2725,-0.2719,-0.2721,-0.2703,-0.2706,-0.2684,-0.2712,-0.2706,-0.2684,-0.2685,-0.2648,-0.2691,-0.266,-0.2658,-0.2659,-0.2569,-0.2551,-0.2483,-0.26,-0.2599,-0.2598,0,-0.2744,-0.2733,-0.2683,-0.268,-0.2672,-0.2649,-0.2634,-0.2617,-0.2609,-0.2612,-0.2602,-0.2616,-0.2586,-0.262,-0.2577,-0.2606,-0.2594,-0.2592,-0.259,-0.2586,-0.2623,-0.256,-0.2461,-0.245,-0.2583,-0.2585,-0.2586,0,-0.2679,-0.2651,-0.2617,-0.2612,-0.2608,-0.2591,-0.2589,-0.2583,-0.2571,-0.2557,-0.2549,-0.2532,-0.2522,-0.2507,-0.2515,-0.254,-0.247,-0.2505,-0.2469,-0.2469,-0.2452,-0.2453,-0.2348,-0.2448,-0.2448,-0.2448,-0.2448,0,-0.2604,-0.2572,-0.2587,-0.2566,-0.253,-0.2545,-0.2508,-0.2509,-0.2503,-0.248,-0.2501,-0.2479,-0.2493,-0.2471,-0.2478,-0.2439,-0.2435,-0.2435,-0.2437,-0.2432,-0.2432,-0.2423,-0.2427,-0.2445,-0.2446,-0.2447,-0.2447,0,-0.2525,-0.2535,-0.2498,-0.2498,-0.2497,-0.247,-0.2468,-0.2447,-0.2452,-0.2422,-0.2416,-0.2422,-0.2397,-0.2405,-0.2378,-0.2383,-0.2333,-0.2342,-0.2336,-0.2337,-0.23,-0.2302,-0.2184,-0.2168,-0.2281,-0.228,-0.2279,0,-0.2476,-0.2452,-0.2448,-0.2435,-0.2431,-0.241,-0.2398,-0.2412,-0.2398,-0.2386,-0.2366,-0.2343,-0.2326,-0.2285,-0.2285,-0.2264,-0.2271,-0.2231,-0.2268,-0.2263,-0.2267,-0.2268,-0.2264,-0.2223,-0.2222,-0.2221,-0.222,0,-0.2386,-0.2392,-0.2375,-0.2358,-0.2343,-0.2331,-0.232,-0.2308,-0.2321,-0.2304,-0.2279,-0.2266,-0.2238,-0.2214,-0.2195,-0.219,-0.2205,-0.2209,-0.2199,-0.2193,-0.2189,-0.2188,-0.2313,-0.2211,-0.2212,-0.2212,-0.2213,-0.2213,-0.2319,-0.2298,-0.2291,-0.2271,-0.2264,-0.2253,-0.2233,-0.2234,-0.2214,-0.2193,-0.2202,-0.2173,-0.2163,-0.2139,-0.2131,-0.2107,-0.2122,-0.2109,-0.2105,-0.21,-0.2095,-0.2194,-0.2104,-0.2104,-0.2104,-0.2105,-0.2105,0,-0.2228,-0.2225,-0.2206,-0.2191,-0.2173,-0.2192,-0.218,-0.2164,-0.2138,-0.2129,-0.2111,-0.2081,-0.2057,-0.2056,-0.2033,-0.2014,-0.202,-0.2007,-0.2007,-0.2005,-0.2084,-0.2093,-0.2002,-0.2002,-0.2002,-0.2002,-0.2002,-0.2002,-0.2179,-0.2143,-0.2147,-0.2107,-0.2104,-0.2077,-0.2068,-0.2057,-0.2049,-0.2015,-0.1996,-0.1995,-0.1987,-0.1964,-0.1942,-0.1942,-0.1931,-0.1915,-0.1917,-0.199,-0.2,-0.201,-0.2019,-0.1913,-0.1913,-0.184,-0.1839,-0.1839]}]]